Location: Unspecified
(0.0000°N, 0.0000°E)
Time: 06:10:25

Coronas F rocket - Visible Passes

Search period start: 29 November 2015 00:00
Search period end: 09 December 2015 00:00
Orbit: 350 x 361 km, 82.5° (Epoch: 28 November)

Date Brightness Start Highest point End Pass type
(mag) Time Alt. Az. Time Alt. Az. Time Alt. Az.
29 Nov 3.8 05:24:27 10° SSE 05:26:53 25° E 05:29:22 10° NE visible
30 Nov 1.7 05:51:40 10° SSW 05:54:27 44° W 05:57:13 10° NNW visible
01 Dec 5.0 04:49:15 10° ESE 04:49:44 10° E 04:50:24 10° E visible
02 Dec 2.3 05:14:27 10° S 05:16:56 50° SE 05:16:56 50° SE visible
03 Dec 4.0 05:42:23 10° SW 05:42:33 11° SW 05:42:33 11° SW visible
